Flag Weather past 2 weeks in Utrecht, Netherlands

Now
54 °F

Light rain. Passing clouds.


Feels Like: 52 °F
Forecast: 40 / 50 °F
Wind: 6 mph from Southeast

Location: Amsterdam Schiphol Airport

Current Time: Nov 23, 2014 at 6:38:04 PM

Latest Report: Nov 23, 2014 at 5:55 PM


Visibility: N/A

Pressure: 29.92 "Hg

Humidity: 88%

Dew point: 50 °F

Location of UtrechtLocation

Historic Weather in Utrecht — Graph

°F

Utrecht temperature yesterday

Maximum temperature yesterday: 54 °F (at 12:55 PM)
Minimum temperature yesterday: 39 °F (at 2:25 AM)
Average temperature yesterday: 47 °F

Past Weeks' High & Low Weather Summary

 TemperatureHumidityPressure
High55 °F (Nov 9, 2:25 PM)100% (Nov 10, 3:55 AM)30.33 "Hg (Nov 10, 3:55 AM)
Low37 °F (Nov 21, 6:25 AM)71% (Nov 21, 3:55 PM)29.47 "Hg (Nov 16, 3:55 PM)
Average48 °F91%29.82 "Hg
* Reported Nov 8 5:25 PM — Nov 23 5:25 PM, Utrecht, Weather by CustomWeather, © 2014

Note: Actual official high and low records may vary slightly from our data, if they occured in-between our weather recording intervals... More about our weather records

Advertising

Utrecht weather history for previous 24 hours

 ConditionsComfort  
Time TempWeatherWind HumidityBarometerVisibility
5:25 PM
Nov 23
54 °FPassing clouds.6 mph88%29.92 "HgN/A
4:55 PM54 °FPassing clouds.6 mph88%29.92 "HgN/A
4:25 PM54 °FSunny.7 mph88%29.92 "Hg10 mi
3:55 PM55 °FSunny.7 mph88%29.92 "Hg10 mi
3:25 PM55 °FSunny.8 mph88%29.92 "Hg10 mi
2:55 PM55 °FSunny.9 mph88%29.92 "Hg10 mi
2:25 PM55 °FSunny.12 mph88%29.95 "Hg10 mi
1:55 PM55 °FSunny.9 mph88%29.95 "Hg10 mi
1:25 PM55 °FSunny.10 mph88%29.95 "Hg10 mi
12:55 PM55 °FSunny.9 mph82%29.98 "Hg10 mi
12:25 PM55 °FSunny.10 mph82%29.98 "Hg10 mi
11:55 AM54 °FPassing clouds.10 mph88%29.98 "HgN/A
11:25 AM54 °FPassing clouds.8 mph88%30.01 "HgN/A
10:55 AM52 °FSunny.9 mph88%30.01 "Hg10 mi
10:25 AM52 °FPassing clouds.9 mph88%30.01 "HgN/A
9:55 AM50 °FClear.9 mph94%30.01 "Hg5 mi
9:25 AM48 °FClear.8 mph94%30.01 "Hg4 mi
8:55 AM48 °FClear.6 mph94%30.01 "Hg4 mi
8:25 AM48 °FClear.10 mph94%30.01 "Hg4 mi
7:55 AM48 °FClear.9 mph94%30.01 "Hg4 mi
7:25 AM48 °FClear.6 mph94%30.01 "Hg4 mi
6:55 AM48 °FClear.6 mph100%30.01 "Hg4 mi
6:25 AM48 °FClear.9 mph100%30.01 "Hg4 mi
5:55 AM48 °FPassing clouds.8 mph94%30.01 "Hg4 mi
5:25 AM48 °FPassing clouds.8 mph100%30.01 "Hg4 mi
4:55 AM48 °FPassing clouds.7 mph94%30.01 "Hg6 mi
4:25 AM48 °FPassing clouds.6 mph100%30.01 "HgN/A
3:55 AM50 °FLight rain. Passing clouds.6 mph94%30.04 "HgN/A
3:25 AM48 °FLight rain. Passing clouds.3 mph94%30.04 "HgN/A
2:55 AM48 °FPassing clouds.6 mph94%30.04 "HgN/A
2:25 AM48 °FClear.6 mph94%30.04 "Hg10 mi
1:55 AM50 °FClear.6 mph94%30.04 "Hg10 mi
1:25 AM50 °FPassing clouds.6 mph94%30.04 "HgN/A
12:55 AM50 °FClear.7 mph88%30.04 "Hg10 mi
12:25 AM50 °FClear.7 mph88%30.04 "Hg10 mi
11:55 PM
Nov 22
50 °FClear.8 mph88%30.04 "Hg10 mi
11:25 PM50 °FPassing clouds.5 mph88%30.04 "HgN/A
10:55 PM50 °FClear.6 mph88%30.04 "Hg10 mi
10:25 PM48 °FClear.6 mph94%30.04 "Hg10 mi
9:55 PM50 °FClear.6 mph88%30.04 "Hg10 mi
9:25 PM50 °FClear.8 mph88%30.01 "Hg10 mi
8:55 PM50 °FClear.10 mph88%30.01 "Hg10 mi
8:25 PM50 °FClear.9 mph88%30.01 "Hg10 mi
7:55 PM50 °FClear.10 mph88%30.01 "Hg10 mi
7:25 PM50 °FClear.8 mph88%30.01 "Hg10 mi
6:55 PM50 °FClear.10 mph94%30.01 "Hg10 mi
6:25 PM50 °FClear.7 mph88%30.01 "Hg10 mi
Weather by CustomWeather, © 2014

See weather overviewHow to use our weather pages